Torna al catalogo

CZ-2C DEB

AttivoSSO
NORAD 40266·DEBRIS·🇨🇳 China

Lanciato Sep 28, 2014 da Jiuquan Satellite Launch Center

Loading…

Prossimi Passaggi (prossime 24 ore)

TLE

AggiornatoSource: Space-Track

Epoca: Sep 13, 2026, 17:23 UTC

1 40266U 14059F   26256.72494901  .00001565  00000-0  50064-3 0  9999
2 40266  98.3463 162.6510 0159698 317.1337  41.7488 14.33994514621360

Traccia CZ-2C DEB in tempo reale con AllMySat

Download on the App Store